Location: Newark
(52.9447°N, 5.7817°E)
Time: 11:15:40
(UTC+00:00)

ISS - Visible Passes

Search period start: 20 September 2020 00:00
Search period end: 30 September 2020 00:00
Orbit: 419 x 420 km, 51.6° (Epoch: 20 September)

Date Brightness Start Highest point End Pass type
(mag) Time Alt. Az. Time Alt. Az. Time Alt. Az.
20 Sep -3.2 19:41:06 10° SW 19:43:52 42° S 19:43:52 42° S visible
21 Sep -3.0 18:53:55 10° SW 18:57:02 36° SSE 18:58:30 24° ESE visible
21 Sep -1.4 20:30:17 10° W 20:31:28 20° WSW 20:31:28 20° WSW visible
22 Sep -2.6 18:06:50 10° SSW 18:09:46 28° SSE 18:12:42 10° E visible
22 Sep -3.6 19:42:55 10° WSW 19:45:58 61° SSW 19:45:58 61° SSW visible
23 Sep -3.6 18:55:34 10° WSW 18:58:53 57° SSE 19:00:25 28° E visible
23 Sep -1.3 20:32:13 10° W 20:33:23 20° W 20:33:23 20° W visible
24 Sep -3.3 18:08:16 10° SW 18:11:31 46° SSE 18:14:46 10° E visible
24 Sep -3.5 19:44:48 10° W 19:47:45 61° SW 19:47:45 61° SW visible
25 Sep -3.8 18:57:24 10° W 19:00:45 71° S 19:02:06 33° E visible
25 Sep -1.0 20:34:09 10° W 20:35:03 17° W 20:35:03 17° W visible
26 Sep -3.6 18:10:00 10° WSW 18:13:20 65° S 18:16:25 12° E visible
26 Sep -3.0 19:46:42 10° W 19:49:22 48° WSW 19:49:22 48° WSW visible
27 Sep -3.7 18:59:15 10° W 19:02:37 69° S 19:03:40 39° ESE visible
27 Sep -0.7 20:36:06 10° W 20:36:37 13° W 20:36:37 13° W visible
28 Sep -3.7 18:11:48 10° W 18:15:10 72° S 18:17:58 14° E visible
28 Sep -2.4 19:48:35 10° W 19:50:55 33° WSW 19:50:55 33° WSW visible
29 Sep -3.3 19:01:05 10° W 19:04:23 51° SSW 19:05:13 39° SSE visible
